Back to catalog

H-2A R/B

AliveHEO
NORAD 40268·ROCKET BODY·🇯🇵 Japan

Launched Oct 7, 2014 from Tanegashima Space Center

Loading…

Next Passes (next 24 hours)

TLE

FreshSource: Space-Track

Epoch: Sep 14, 2026, 00:15 UTC

1 40268U 14060B   26257.01068124  .00007688  00000-0  59524-3 0  9992
2 40268  22.4044 231.7793 6562872 212.9637  79.7131  3.26532290116778

Track H-2A R/B in real time with AllMySat

Download on the App Store